This is the latest recevied weather packets stored in our database for station/object IW9CSJ-13. If no packets are shown the sender has not sent any weather packets the latest 1 day(s).
| Time | Temp. | Humidity | Pressure | Rain* | Wind** | Luminosity | Snow |
|---|---|---|---|---|---|---|---|
| 1778067321 | 16.67° C | 87% | 1014.1 hPa | 0 mm | - | - | - |
| 1778067020 | 16.67° C | 87% | 1014.1 hPa | 0 mm | - | - | - |
| 1778064919 | 16.67° C | 88% | 1014.2 hPa | 0 mm | - | - | - |
| 1778064318 | 16.67° C | 87% | 1014.2 hPa | 0 mm | - | - | - |
| 1778063419 | 17.22° C | 87% | 1014.5 hPa | 0 mm | - | - | - |
| 1778063119 | 16.67° C | 87% | 1014.3 hPa | 0 mm | - | - | - |
| 1778062521 | 16.67° C | 88% | 1014.4 hPa | 0 mm | - | - | - |
| 1778061321 | 16.11° C | 89% | 1014.7 hPa | 0 mm | - | - | - |
| 1778059821 | 15.56° C | 88% | 1014.5 hPa | 0 mm | - | - | - |
| 1778059519 | 16.11° C | 88% | 1014.5 hPa | 0 mm | - | - | - |
| 1778058619 | 16.11° C | 87% | 1014 hPa | 0 mm | - | - | - |
| 1778056519 | 16.67° C | 87% | 1014.3 hPa | 0 mm | - | - | - |
| 1778056220 | 16.67° C | 88% | 1014.3 hPa | 0 mm | - | - | - |
| 1778055636 | 16.11° C | 88% | 1014.3 hPa | 0 mm | - | - | - |
| 1778055021 | 16.11° C | 87% | 1014.5 hPa | 0 mm | - | - | - |
| 1778054720 | 16.11° C | 87% | 1014.3 hPa | 0 mm | - | - | - |
| 1778054120 | 16.11° C | 87% | 1014.2 hPa | 0 mm | - | - | - |
| 1778053821 | 16.11° C | 86% | 1014.3 hPa | 0 mm | - | - | - |
| 1778053219 | 16.11° C | 86% | 1014.3 hPa | 0 mm | - | - | - |
| 1778052620 | 16.11° C | 86% | 1014.3 hPa | 0 mm | - | - | - |
| 1778052325 | 16.11° C | 85% | 1014.3 hPa | 0 mm | - | - | - |
| 1778051446 | 16.11° C | 84% | 1014.6 hPa | 0 mm | - | - | - |
| 1778050521 | 16.67° C | 84% | 1014.3 hPa | 0 mm | - | - | - |
| 1778050222 | 16.67° C | 84% | 1014.4 hPa | 0 mm | - | - | - |
| 1778049619 | 16.67° C | 85% | 1014.4 hPa | 0 mm | - | - | - |
* Rain latest hour (hover to see other rain measurements)
** Current wind speed in m/s (hover to see current wind gust speed)